,,PressureMeas_1m,,PRMeasQMR101_1,,RHStat155_1m_1,,SRMeasQMS101R_1m,,TAStat155_1m_1,,GenWind_1,,GenWind_1,
2017-05-15, 07:00:07,VALID,917.022,VALID,0.0,VALID,97.746,VALID,30.479,VALID,20.495,VALID,146.0,VALID,0.389,
2017-05-15, 07:01:07,VALID,917.049,VALID,0.0,VALID,97.849,VALID,30.648,VALID,20.541,VALID,161.0,VALID,0.67,
2017-05-15, 07:02:07,VALID,917.069,VALID,0.0,VALID,97.567,VALID,31.016,VALID,20.495,VALID,142.0,VALID,0.969,
2017-05-15, 07:03:07,VALID,917.08,VALID,0.0,VALID,97.514,VALID,31.407,VALID,20.501,VALID,142.0,VALID,0.808,
2017-05-15, 07:04:07,VALID,917.093,VALID,0.0,VALID,97.54,VALID,31.927,VALID,20.511,VALID,146.0,VALID,1.072,
2017-05-15, 07:05:07,VALID,917.119,VALID,0.0,VALID,97.386,VALID,32.851,VALID,20.51,VALID,137.0,VALID,1.156,
2017-05-15, 07:06:07,VALID,917.14,VALID,0.0,VALID,97.417,VALID,34.23,VALID,20.534,VALID,150.0,VALID,0.967,
2017-05-15, 07:07:07,VALID,917.168,VALID,0.0,VALID,97.48,VALID,36.041,VALID,20.574,VALID,160.0,VALID,0.789,
2017-05-15, 07:08:07,VALID,917.182,VALID,0.0,VALID,97.387,VALID,37.708,VALID,20.571,VALID,157.0,VALID,0.958,
2017-05-15, 07:09:07,VALID,917.193,VALID,0.0,VALID,97.201,VALID,39.567,VALID,20.561,VALID,157.0,VALID,0.588,
2017-05-15, 07:10:07,VALID,917.19,VALID,0.0,VALID,97.389,VALID,41.976,VALID,20.608,VALID,179.0,VALID,0.327,
2017-05-15, 07:11:07,VALID,917.179,VALID,0.0,VALID,97.325,VALID,45.06,VALID,20.629,VALID,157.0,VALID,0.601,
2017-05-15, 07:12:07,VALID,917.176,VALID,0.2,VALID,97.07,VALID,48.316,VALID,20.598,VALID,157.0,VALID,0.578,
2017-05-15, 07:13:07,VALID,917.171,VALID,0.0,VALID,97.165,VALID,51.328,VALID,20.616,VALID,153.0,VALID,0.856,
2017-05-15, 07:14:07,VALID,917.159,VALID,0.0,VALID,97.161,VALID,53.582,VALID,20.637,VALID,183.0,VALID,0.451,
2017-05-15, 07:15:07,VALID,917.176,VALID,0.0,VALID,97.256,VALID,55.209,VALID,20.659,VALID,147.0,VALID,1.041,
2017-05-15, 07:16:07,VALID,917.165,VALID,0.0,VALID,96.983,VALID,56.395,VALID,20.601,VALID,151.0,VALID,1.52,
2017-05-15, 07:17:07,VALID,917.167,VALID,0.0,VALID,97.004,VALID,57.637,VALID,20.569,VALID,152.0,VALID,1.618,
2017-05-15, 07:18:07,VALID,917.168,VALID,0.0,VALID,97.218,VALID,58.551,VALID,20.565,VALID,163.0,VALID,1.391,
2017-05-15, 07:19:07,VALID,917.176,VALID,0.0,VALID,97.238,VALID,58.486,VALID,20.548,VALID,146.0,VALID,1.551,
2017-05-15, 07:20:07,VALID,917.181,VALID,0.0,VALID,97.281,VALID,57.933,VALID,20.547,VALID,138.0,VALID,1.505,
2017-05-15, 07:21:07,VALID,917.181,VALID,0.0,VALID,97.398,VALID,58.184,VALID,20.546,VALID,141.0,VALID,1.748,
2017-05-15, 07:22:07,VALID,917.178,VALID,0.0,VALID,97.369,VALID,57.772,VALID,20.536,VALID,139.0,VALID,2.014,
2017-05-15, 07:23:07,VALID,917.176,VALID,0.0,VALID,97.349,VALID,57.336,VALID,20.541,VALID,163.0,VALID,1.329,
2017-05-15, 07:24:07,VALID,917.175,VALID,0.0,VALID,97.406,VALID,56.767,VALID,20.568,VALID,153.0,VALID,1.647,
2017-05-15, 07:25:07,VALID,917.172,VALID,0.0,VALID,97.327,VALID,55.219,VALID,20.58,VALID,156.0,VALID,1.649,
2017-05-15, 07:26:07,VALID,917.181,VALID,0.0,VALID,97.222,VALID,56.595,VALID,20.574,VALID,160.0,VALID,1.119,
2017-05-15, 07:27:07,VALID,917.184,VALID,0.0,VALID,97.065,VALID,55.966,VALID,20.56,VALID,155.0,VALID,1.273,
2017-05-15, 07:28:07,VALID,917.199,VALID,0.0,VALID,97.183,VALID,55.52,VALID,20.6,VALID,170.0,VALID,1.316,
2017-05-15, 07:29:07,VALID,917.212,VALID,0.0,VALID,97.209,VALID,54.15,VALID,20.618,VALID,151.0,VALID,1.662,
2017-05-15, 07:30:07,VALID,917.226,VALID,0.0,VALID,96.866,VALID,53.298,VALID,20.584,VALID,149.0,VALID,2.257,
2017-05-15, 07:31:07,VALID,917.239,VALID,0.0,VALID,96.48,VALID,52.932,VALID,20.562,VALID,154.0,VALID,1.182,
2017-05-15, 07:32:07,VALID,917.255,VALID,0.0,VALID,96.469,VALID,52.614,VALID,20.583,VALID,139.0,VALID,2.009,
2017-05-15, 07:33:06,VALID,917.274,VALID,0.0,VALID,96.522,VALID,52.367,VALID,20.601,VALID,145.0,VALID,1.715,
2017-05-15, 07:34:06,VALID,917.277,VALID,0.0,VALID,96.365,VALID,52.466,VALID,20.596,VALID,124.0,VALID,2.148,
2017-05-15, 07:35:06,VALID,917.31,VALID,0.0,VALID,96.146,VALID,52.303,VALID,20.611,VALID,146.0,VALID,2.08,
2017-05-15, 07:36:06,VALID,917.332,VALID,0.0,VALID,96.086,VALID,51.835,VALID,20.63,VALID,134.0,VALID,1.666,
2017-05-15, 07:37:06,VALID,917.372,VALID,0.0,VALID,95.943,VALID,50.161,VALID,20.63,VALID,140.0,VALID,2.032,
2017-05-15, 07:38:06,VALID,917.422,VALID,0.0,VALID,95.926,VALID,46.934,VALID,20.648,VALID,135.0,VALID,1.572,
2017-05-15, 07:39:06,VALID,917.47,VALID,0.0,VALID,95.777,VALID,43.377,VALID,20.663,VALID,133.0,VALID,1.608,
2017-05-15, 07:40:06,VALID,917.507,VALID,0.0,VALID,95.858,VALID,41.105,VALID,20.685,VALID,125.0,VALID,1.555,
2017-05-15, 07:41:06,VALID,917.543,VALID,0.0,VALID,95.722,VALID,40.19,VALID,20.694,VALID,129.0,VALID,2.253,
2017-05-15, 07:42:06,VALID,917.565,VALID,0.0,VALID,95.3,VALID,40.193,VALID,20.702,VALID,140.0,VALID,2.134,
2017-05-15, 07:43:06,VALID,917.585,VALID,0.0,VALID,95.254,VALID,39.97,VALID,20.713,VALID,125.0,VALID,1.96,
2017-05-15, 07:44:06,VALID,917.611,VALID,0.0,VALID,95.405,VALID,39.56,VALID,20.735,VALID,114.0,VALID,2.368,
2017-05-15, 07:45:06,VALID,917.62,VALID,0.0,VALID,95.457,VALID,38.583,VALID,20.753,VALID,108.0,VALID,2.185,
2017-05-15, 07:46:06,VALID,917.659,VALID,0.0,VALID,95.243,VALID,38.318,VALID,20.767,VALID,130.0,VALID,2.412,
2017-05-15, 07:47:06,VALID,917.682,VALID,0.0,VALID,95.036,VALID,38.409,VALID,20.778,VALID,132.0,VALID,2.442,
2017-05-15, 07:48:06,VALID,917.695,VALID,0.0,VALID,95.019,VALID,39.585,VALID,20.778,VALID,128.0,VALID,1.812,
2017-05-15, 07:49:06,VALID,917.718,VALID,0.0,VALID,95.208,VALID,42.493,VALID,20.795,VALID,116.0,VALID,1.618,
2017-05-15, 07:50:06,VALID,917.742,VALID,0.0,VALID,95.376,VALID,46.474,VALID,20.786,VALID,128.0,VALID,1.9,
2017-05-15, 07:51:06,VALID,917.76,VALID,0.0,VALID,95.472,VALID,50.291,VALID,20.784,VALID,131.0,VALID,1.933,
2017-05-15, 07:52:06,VALID,917.774,VALID,0.0,VALID,95.415,VALID,54.233,VALID,20.783,VALID,122.0,VALID,1.656,
2017-05-15, 07:53:06,VALID,917.773,VALID,0.0,VALID,95.39,VALID,59.569,VALID,20.791,VALID,121.0,VALID,2.35,
2017-05-15, 07:54:06,VALID,917.772,VALID,0.0,VALID,95.344,VALID,66.666,VALID,20.8,VALID,115.0,VALID,1.986,
2017-05-15, 07:55:06,VALID,917.776,VALID,0.0,VALID,95.511,VALID,74.626,VALID,20.804,VALID,111.0,VALID,1.963,
2017-05-15, 07:56:06,VALID,917.777,VALID,0.0,VALID,95.51,VALID,82.844,VALID,20.801,VALID,106.0,VALID,2.033,
2017-05-15, 07:57:06,VALID,917.76,VALID,0.0,VALID,95.808,VALID,91.366,VALID,20.824,VALID,109.0,VALID,1.875,
2017-05-15, 07:58:06,VALID,917.765,VALID,0.0,VALID,95.462,VALID,100.47,VALID,20.82,VALID,113.0,VALID,2.187,
2017-05-15, 07:59:06,VALID,917.747,VALID,0.0,VALID,95.387,VALID,110.982,VALID,20.846,VALID,111.0,VALID,2.002,
2017-05-15, 08:00:06,VALID,917.749,VALID,0.0,VALID,95.423,VALID,122.836,VALID,20.88,VALID,113.0,VALID,1.895,
2017-05-15, 08:01:06,VALID,917.733,VALID,0.0,VALID,95.422,VALID,134.405,VALID,20.911,VALID,113.0,VALID,1.867,
2017-05-15, 08:02:06,VALID,917.729,VALID,0.0,VALID,95.42,VALID,143.787,VALID,20.93,VALID,105.0,VALID,1.757,
2017-05-15, 08:03:06,VALID,917.737,VALID,0.0,VALID,95.352,VALID,150.7,VALID,20.934,VALID,103.0,VALID,1.941,
2017-05-15, 08:04:06,VALID,917.755,VALID,0.0,VALID,95.189,VALID,153.195,VALID,20.944,VALID,111.0,VALID,1.873,
2017-05-15, 08:05:06,VALID,917.778,VALID,0.0,VALID,94.951,VALID,153.344,VALID,20.98,VALID,109.0,VALID,1.986,
2017-05-15, 08:06:06,VALID,917.802,VALID,0.0,VALID,94.465,VALID,151.075,VALID,20.994,VALID,110.0,VALID,2.082,
2017-05-15, 08:07:06,VALID,917.825,VALID,0.0,VALID,94.162,VALID,146.753,VALID,21.032,VALID,107.0,VALID,1.573,
2017-05-15, 08:08:06,VALID,917.831,VALID,0.0,VALID,94.468,VALID,143.998,VALID,21.093,VALID,96.0,VALID,2.125,
2017-05-15, 08:09:06,VALID,917.87,VALID,0.0,VALID,94.443,VALID,144.758,VALID,21.142,VALID,115.0,VALID,1.6,
2017-05-15, 08:10:06,VALID,917.865,VALID,0.0,VALID,94.904,VALID,147.978,VALID,21.222,VALID,107.0,VALID,1.301,
2017-05-15, 08:11:06,VALID,917.891,VALID,0.0,VALID,94.047,VALID,149.603,VALID,21.221,VALID,119.0,VALID,2.005,
2017-05-15, 08:12:06,VALID,917.908,VALID,0.0,VALID,94.355,VALID,155.48,VALID,21.236,VALID,116.0,VALID,1.654,
2017-05-15, 08:13:06,VALID,917.943,VALID,0.0,VALID,94.722,VALID,165.112,VALID,21.265,VALID,111.0,VALID,1.198,
2017-05-15, 08:14:06,VALID,917.958,VALID,0.0,VALID,94.195,VALID,173.779,VALID,21.287,VALID,116.0,VALID,1.364,
2017-05-15, 08:15:06,VALID,917.987,VALID,0.0,VALID,93.884,VALID,182.914,VALID,21.319,VALID,118.0,VALID,0.884,
2017-05-15, 08:16:06,VALID,918.001,VALID,0.0,VALID,94.116,VALID,191.694,VALID,21.391,VALID,118.0,VALID,0.991,
2017-05-15, 08:17:06,VALID,918.002,VALID,0.0,VALID,93.469,VALID,204.791,VALID,21.416,VALID,105.0,VALID,1.175,
2017-05-15, 08:18:06,VALID,918.001,VALID,0.0,VALID,94.034,VALID,225.259,VALID,21.472,VALID,132.0,VALID,0.72,
2017-05-15, 08:19:06,VALID,917.974,VALID,0.0,VALID,94.12,VALID,255.786,VALID,21.553,VALID,128.0,VALID,1.053,
2017-05-15, 08:20:06,VALID,917.949,VALID,0.0,VALID,92.94,VALID,308.961,VALID,21.601,VALID,120.0,VALID,1.19,
2017-05-15, 08:21:06,VALID,917.912,VALID,0.0,VALID,93.095,VALID,405.855,VALID,21.681,VALID,125.0,VALID,1.257,
2017-05-15, 08:22:06,VALID,917.886,VALID,0.0,VALID,92.838,VALID,369.526,VALID,21.792,VALID,115.0,VALID,1.164,
2017-05-15, 08:23:06,VALID,917.872,VALID,0.0,VALID,93.553,VALID,412.621,VALID,21.937,VALID,113.0,VALID,1.145,
2017-05-15, 08:24:06,VALID,917.857,VALID,0.0,VALID,93.051,VALID,409.831,VALID,22.094,VALID,94.0,VALID,1.291,
2017-05-15, 08:25:06,VALID,917.856,VALID,0.0,VALID,90.741,VALID,509.169,VALID,22.101,VALID,104.0,VALID,1.918,
2017-05-15, 08:26:06,VALID,917.871,VALID,0.0,VALID,90.267,VALID,400.031,VALID,22.038,VALID,112.0,VALID,2.224,
2017-05-15, 08:27:06,VALID,917.885,VALID,0.0,VALID,91.171,VALID,384.742,VALID,22.027,VALID,113.0,VALID,2.27,
2017-05-15, 08:28:06,VALID,917.895,VALID,0.0,VALID,89.924,VALID,382.407,VALID,22.083,VALID,119.0,VALID,2.944,
2017-05-15, 08:29:06,VALID,917.889,VALID,0.0,VALID,89.398,VALID,380.64,VALID,22.048,VALID,109.0,VALID,2.654,
2017-05-15, 08:30:06,VALID,917.882,VALID,0.0,VALID,91.974,VALID,385.156,VALID,22.095,VALID,95.0,VALID,1.918,
2017-05-15, 08:31:06,VALID,917.877,VALID,0.0,VALID,91.45,VALID,374.841,VALID,22.177,VALID,114.0,VALID,1.684,
2017-05-15, 08:32:06,VALID,917.859,VALID,0.0,VALID,91.377,VALID,366.505,VALID,22.279,VALID,97.0,VALID,1.448,
2017-05-15, 08:33:06,VALID,917.847,VALID,0.0,VALID,90.404,VALID,346.15,VALID,22.316,VALID,99.0,VALID,2.197,
2017-05-15, 08:34:06,VALID,917.828,VALID,0.0,VALID,89.59,VALID,312.163,VALID,22.147,VALID,95.0,VALID,2.075,
2017-05-15, 08:35:06,VALID,917.812,VALID,0.0,VALID,90.354,VALID,299.821,VALID,22.054,VALID,104.0,VALID,2.351,
2017-05-15, 08:36:06,VALID,917.801,VALID,0.0,VALID,89.544,VALID,318.428,VALID,21.966,VALID,110.0,VALID,2.125,
2017-05-15, 08:37:06,VALID,917.782,VALID,0.0,VALID,91.22,VALID,304.992,VALID,21.952,VALID,95.0,VALID,1.811,
2017-05-15, 08:38:06,VALID,917.771,VALID,0.0,VALID,91.847,VALID,316.045,VALID,21.992,VALID,83.0,VALID,1.731,
2017-05-15, 08:39:06,VALID,917.775,VALID,0.0,VALID,91.744,VALID,307.104,VALID,22.068,VALID,88.0,VALID,1.894,
2017-05-15, 08:40:06,VALID,917.796,VALID,0.0,VALID,90.372,VALID,324.078,VALID,22.109,VALID,78.0,VALID,2.102,
2017-05-15, 08:41:06,VALID,917.819,VALID,0.0,VALID,89.966,VALID,291.89,VALID,22.133,VALID,113.0,VALID,2.174,
2017-05-15, 08:42:06,VALID,917.852,VALID,0.0,VALID,89.075,VALID,284.132,VALID,22.207,VALID,114.0,VALID,1.456,
2017-05-15, 08:43:06,VALID,917.853,VALID,0.0,VALID,89.928,VALID,287.988,VALID,22.319,VALID,94.0,VALID,1.796,
2017-05-15, 08:44:06,VALID,917.862,VALID,0.0,VALID,90.134,VALID,295.437,VALID,22.302,VALID,103.0,VALID,2.077,
2017-05-15, 08:45:06,VALID,917.882,VALID,0.0,VALID,89.187,VALID,302.644,VALID,22.322,VALID,123.0,VALID,1.373,
2017-05-15, 08:46:06,VALID,917.871,VALID,0.0,VALID,90.205,VALID,298.775,VALID,22.429,VALID,144.0,VALID,1.816,
2017-05-15, 08:47:06,VALID,917.884,VALID,0.0,VALID,90.389,VALID,305.466,VALID,22.446,VALID,157.0,VALID,1.216,
2017-05-15, 08:48:06,VALID,917.882,VALID,0.0,VALID,90.329,VALID,309.348,VALID,22.467,VALID,163.0,VALID,1.555,
2017-05-15, 08:49:06,VALID,917.884,VALID,0.0,VALID,88.584,VALID,309.083,VALID,22.523,VALID,130.0,VALID,1.233,
2017-05-15, 08:50:06,VALID,917.872,VALID,0.0,VALID,88.557,VALID,308.683,VALID,22.613,VALID,171.0,VALID,1.002,
2017-05-15, 08:51:06,VALID,917.864,VALID,0.0,VALID,87.754,VALID,310.697,VALID,22.635,VALID,139.0,VALID,1.2,
2017-05-15, 08:52:06,VALID,917.849,VALID,0.0,VALID,87.998,VALID,318.189,VALID,22.58,VALID,139.0,VALID,1.43,
2017-05-15, 08:53:06,VALID,917.825,VALID,0.0,VALID,88.103,VALID,354.052,VALID,22.571,VALID,140.0,VALID,1.063,
2017-05-15, 08:54:06,VALID,917.807,VALID,0.0,VALID,88.794,VALID,428.549,VALID,22.646,VALID,130.0,VALID,1.589,
2017-05-15, 08:55:06,VALID,917.802,VALID,0.0,VALID,86.297,VALID,352.943,VALID,22.73,VALID,143.0,VALID,1.529,
2017-05-15, 08:56:06,VALID,917.806,VALID,0.0,VALID,87.621,VALID,334.04,VALID,22.802,VALID,165.0,VALID,1.47,
2017-05-15, 08:57:06,VALID,917.816,VALID,0.0,VALID,87.718,VALID,319.858,VALID,22.847,VALID,157.0,VALID,1.221,
2017-05-15, 08:58:06,VALID,917.828,VALID,0.0,VALID,87.246,VALID,313.086,VALID,22.903,VALID,159.0,VALID,1.339,
2017-05-15, 08:59:06,VALID,917.831,VALID,0.0,VALID,86.093,VALID,317.551,VALID,22.853,VALID,148.0,VALID,2.038,
2017-05-15, 09:00:06,VALID,917.841,VALID,0.0,VALID,86.181,VALID,361.448,VALID,22.71,VALID,153.0,VALID,1.505,
2017-05-15, 09:01:06,VALID,917.82,VALID,0.0,VALID,86.946,VALID,512.911,VALID,22.729,VALID,153.0,VALID,1.662,
2017-05-15, 09:02:06,VALID,917.812,VALID,0.0,VALID,86.305,VALID,658.717,VALID,22.772,VALID,152.0,VALID,1.8,
2017-05-15, 09:03:06,VALID,917.797,VALID,0.0,VALID,88.202,VALID,434.209,VALID,22.876,VALID,160.0,VALID,1.717,
2017-05-15, 09:04:06,VALID,917.781,VALID,0.0,VALID,87.602,VALID,458.94,VALID,22.998,VALID,163.0,VALID,1.382,
2017-05-15, 09:05:06,VALID,917.763,VALID,0.0,VALID,87.287,VALID,620.018,VALID,23.105,VALID,149.0,VALID,1.807,
2017-05-15, 09:06:06,VALID,917.756,VALID,0.0,VALID,87.186,VALID,552.297,VALID,23.134,VALID,164.0,VALID,1.114,
2017-05-15, 09:07:06,VALID,917.751,VALID,0.0,VALID,86.609,VALID,503.976,VALID,23.259,VALID,177.0,VALID,0.884,
2017-05-15, 09:08:06,VALID,917.747,VALID,0.0,VALID,84.78,VALID,654.292,VALID,23.379,VALID,175.0,VALID,0.468,
2017-05-15, 09:09:06,VALID,917.759,VALID,0.0,VALID,85.523,VALID,473.256,VALID,23.501,VALID,163.0,VALID,1.396,
2017-05-15, 09:10:06,VALID,917.757,VALID,0.0,VALID,84.805,VALID,580.754,VALID,23.397,VALID,152.0,VALID,0.793,
2017-05-15, 09:11:06,VALID,917.743,VALID,0.0,VALID,85.949,VALID,806.602,VALID,23.45,VALID,89.0,VALID,0.643,
2017-05-15, 09:12:06,VALID,917.725,VALID,0.0,VALID,85.671,VALID,845.723,VALID,23.595,VALID,137.0,VALID,0.856,
2017-05-15, 09:13:06,VALID,917.721,VALID,0.0,VALID,84.456,VALID,855.423,VALID,23.741,VALID,168.0,VALID,0.899,
2017-05-15, 09:14:06,VALID,917.715,VALID,0.0,VALID,83.06,VALID,851.895,VALID,23.851,VALID,144.0,VALID,0.244,
2017-05-15, 09:15:06,VALID,917.705,VALID,0.0,VALID,83.462,VALID,843.119,VALID,24.144,VALID,141.0,VALID,1.22,
2017-05-15, 09:16:06,VALID,917.697,VALID,0.0,VALID,81.813,VALID,845.32,VALID,24.243,VALID,155.0,VALID,1.065,
2017-05-15, 09:17:06,VALID,917.693,VALID,0.0,VALID,82.12,VALID,836.575,VALID,24.36,VALID,181.0,VALID,1.122,
2017-05-15, 09:18:06,VALID,917.7,VALID,0.0,VALID,79.82,VALID,839.153,VALID,24.51,VALID,155.0,VALID,1.014,
2017-05-15, 09:19:06,VALID,917.7,VALID,0.0,VALID,78.301,VALID,825.885,VALID,24.629,VALID,174.0,VALID,1.701,
2017-05-15, 09:20:06,VALID,917.694,VALID,0.0,VALID,77.081,VALID,800.43,VALID,24.626,VALID,173.0,VALID,1.184,
2017-05-15, 09:21:06,VALID,917.705,VALID,0.0,VALID,78.246,VALID,861.56,VALID,24.73,VALID,188.0,VALID,1.12,
2017-05-15, 09:22:06,VALID,917.696,VALID,0.0,VALID,76.091,VALID,870.135,VALID,24.887,VALID,186.0,VALID,1.273,
2017-05-15, 09:23:06,VALID,917.685,VALID,0.0,VALID,76.074,VALID,775.543,VALID,25.004,VALID,188.0,VALID,1.119,
2017-05-15, 09:24:06,VALID,917.685,VALID,0.0,VALID,75.583,VALID,802.189,VALID,25.147,VALID,162.0,VALID,1.373,
2017-05-15, 09:25:06,VALID,917.701,VALID,0.0,VALID,74.983,VALID,638.672,VALID,25.036,VALID,158.0,VALID,1.366,
2017-05-15, 09:26:06,VALID,917.694,VALID,0.0,VALID,74.595,VALID,407.666,VALID,24.736,VALID,154.0,VALID,1.256,
2017-05-15, 09:27:06,VALID,917.693,VALID,0.0,VALID,74.187,VALID,390.11,VALID,24.437,VALID,162.0,VALID,1.46,
2017-05-15, 09:28:06,VALID,917.699,VALID,0.0,VALID,76.211,VALID,385.955,VALID,24.42,VALID,150.0,VALID,0.269,
2017-05-15, 09:29:06,VALID,917.687,VALID,0.0,VALID,76.66,VALID,456.377,VALID,24.587,VALID,134.0,VALID,0.382,
2017-05-15, 09:30:06,VALID,917.681,VALID,0.0,VALID,77.433,VALID,435.586,VALID,24.642,VALID,132.0,VALID,1.111,
2017-05-15, 09:31:06,VALID,917.684,VALID,0.0,VALID,78.093,VALID,381.948,VALID,24.624,VALID,173.0,VALID,0.31,
2017-05-15, 09:32:06,VALID,917.663,VALID,0.0,VALID,77.211,VALID,361.203,VALID,24.743,VALID,206.0,VALID,0.089,
2017-05-15, 09:33:06,VALID,917.643,VALID,0.0,VALID,78.922,VALID,366.627,VALID,24.757,VALID,229.0,VALID,1.022,
2017-05-15, 09:34:06,VALID,917.622,VALID,0.0,VALID,80.004,VALID,376.221,VALID,24.588,VALID,193.0,VALID,0.911,
2017-05-15, 09:35:06,VALID,917.612,VALID,0.0,VALID,80.334,VALID,366.139,VALID,24.537,VALID,213.0,VALID,1.59,
2017-05-15, 09:36:06,VALID,917.613,VALID,0.0,VALID,81.087,VALID,364.626,VALID,24.484,VALID,220.0,VALID,0.898,
2017-05-15, 09:37:06,VALID,917.605,VALID,0.0,VALID,81.641,VALID,362.605,VALID,24.423,VALID,200.0,VALID,1.338,
2017-05-15, 09:38:06,VALID,917.611,VALID,0.0,VALID,81.763,VALID,382.125,VALID,24.353,VALID,201.0,VALID,1.045,
2017-05-15, 09:39:06,VALID,917.617,VALID,0.0,VALID,81.786,VALID,462.297,VALID,24.332,VALID,204.0,VALID,1.332,
2017-05-15, 09:40:06,VALID,917.627,VALID,0.0,VALID,81.679,VALID,383.037,VALID,24.255,VALID,242.0,VALID,0.82,
2017-05-15, 09:41:06,VALID,917.629,VALID,0.0,VALID,82.375,VALID,390.83,VALID,24.263,VALID,269.0,VALID,0.326,
2017-05-15, 09:42:06,VALID,917.626,VALID,0.0,VALID,82.996,VALID,477.799,VALID,24.283,VALID,239.0,VALID,0.739,
2017-05-15, 09:43:06,VALID,917.627,VALID,0.0,VALID,81.693,VALID,777.104,VALID,24.257,VALID,201.0,VALID,0.14,
2017-05-15, 09:44:06,VALID,917.61,VALID,0.0,VALID,82.364,VALID,922.715,VALID,24.368,VALID,108.0,VALID,0.193,
2017-05-15, 09:45:06,VALID,917.614,VALID,0.0,VALID,82.585,VALID,801.728,VALID,24.571,VALID,146.0,VALID,0.11,
2017-05-15, 09:46:06,VALID,917.614,VALID,0.0,VALID,82.603,VALID,523.409,VALID,24.818,VALID,142.0,VALID,0.027,
2017-05-15, 09:47:06,VALID,917.607,VALID,0.0,VALID,82.293,VALID,619.008,VALID,25.142,VALID,240.0,VALID,0.547,
2017-05-15, 09:48:06,VALID,917.599,VALID,0.0,VALID,78.185,VALID,551.86,VALID,25.155,VALID,250.0,VALID,1.209,
2017-05-15, 09:49:06,VALID,917.583,VALID,0.0,VALID,79.355,VALID,484.935,VALID,24.922,VALID,267.0,VALID,0.348,
2017-05-15, 09:50:06,VALID,917.555,VALID,0.0,VALID,81.222,VALID,522.458,VALID,24.907,VALID,271.0,VALID,0.302,
2017-05-15, 09:51:06,VALID,917.555,VALID,0.0,VALID,80.805,VALID,543.508,VALID,24.963,VALID,277.0,VALID,0.705,
2017-05-15, 09:52:06,VALID,917.521,VALID,0.0,VALID,79.933,VALID,597.673,VALID,24.869,VALID,259.0,VALID,0.919,
2017-05-15, 09:53:06,VALID,917.505,VALID,0.0,VALID,78.679,VALID,735.812,VALID,24.68,VALID,251.0,VALID,1.115,
2017-05-15, 09:54:06,VALID,917.493,VALID,0.0,VALID,79.329,VALID,786.04,VALID,24.599,VALID,234.0,VALID,0.812,
2017-05-15, 09:55:06,VALID,917.475,VALID,0.0,VALID,79.081,VALID,814.461,VALID,24.707,VALID,228.0,VALID,0.503,
2017-05-15, 09:56:06,VALID,917.474,VALID,0.0,VALID,78.379,VALID,939.24,VALID,24.786,VALID,256.0,VALID,1.095,
2017-05-15, 09:57:06,VALID,917.475,VALID,0.0,VALID,78.499,VALID,728.817,VALID,24.748,VALID,246.0,VALID,0.813,
2017-05-15, 09:58:06,VALID,917.46,VALID,0.0,VALID,79.507,VALID,648.175,VALID,24.831,VALID,194.0,VALID,0.282,
2017-05-15, 09:59:06,VALID,917.465,VALID,0.0,VALID,79.309,VALID,924.651,VALID,25.125,VALID,245.0,VALID,0.546,
2017-05-15, 10:00:06,VALID,917.454,VALID,0.0,VALID,76.237,VALID,1039.051,VALID,25.241,VALID,257.0,VALID,0.779,
2017-05-15, 10:01:06,VALID,917.437,VALID,0.0,VALID,76.29,VALID,953.512,VALID,25.21,VALID,248.0,VALID,0.874,
2017-05-15, 10:02:06,VALID,917.421,VALID,0.0,VALID,75.986,VALID,856.858,VALID,25.204,VALID,160.0,VALID,0.654,
2017-05-15, 10:03:06,VALID,917.398,VALID,0.0,VALID,77.254,VALID,384.31,VALID,25.125,VALID,173.0,VALID,0.998,
2017-05-15, 10:04:06,VALID,917.383,VALID,0.0,VALID,79.032,VALID,397.17,VALID,25.234,VALID,259.0,VALID,0.816,
2017-05-15, 10:05:06,VALID,917.384,VALID,0.0,VALID,77.54,VALID,341.965,VALID,25.315,VALID,208.0,VALID,1.204,
2017-05-15, 10:06:06,VALID,917.367,VALID,0.0,VALID,76.823,VALID,323.786,VALID,25.217,VALID,207.0,VALID,0.974,
2017-05-15, 10:07:06,VALID,917.352,VALID,0.0,VALID,77.533,VALID,386.799,VALID,25.112,VALID,193.0,VALID,1.116,
2017-05-15, 10:08:06,VALID,917.351,VALID,0.0,VALID,77.88,VALID,411.276,VALID,25.127,VALID,186.0,VALID,0.602,
2017-05-15, 10:09:06,VALID,917.351,VALID,0.0,VALID,76.634,VALID,426.142,VALID,25.19,VALID,270.0,VALID,0.176,
2017-05-15, 10:10:06,VALID,917.364,VALID,0.0,VALID,75.088,VALID,428.108,VALID,25.172,VALID,259.0,VALID,0.645,
2017-05-15, 10:11:06,VALID,917.359,VALID,0.0,VALID,77.022,VALID,390.289,VALID,25.017,VALID,259.0,VALID,0.773,
2017-05-15, 10:12:06,VALID,917.343,VALID,0.0,VALID,77.765,VALID,370.742,VALID,24.861,VALID,252.0,VALID,0.861,
2017-05-15, 10:13:06,VALID,917.321,VALID,0.0,VALID,77.949,VALID,344.453,VALID,24.767,VALID,249.0,VALID,0.939,
2017-05-15, 10:14:06,VALID,917.302,VALID,0.0,VALID,78.437,VALID,427.707,VALID,24.765,VALID,255.0,VALID,0.754,
2017-05-15, 10:15:06,VALID,917.284,VALID,0.0,VALID,78.137,VALID,452.62,VALID,24.803,VALID,245.0,VALID,0.708,
2017-05-15, 10:16:06,VALID,917.265,VALID,0.0,VALID,78.409,VALID,310.79,VALID,24.874,VALID,227.0,VALID,0.587,
2017-05-15, 10:17:06,VALID,917.28,VALID,0.0,VALID,77.905,VALID,302.052,VALID,24.99,VALID,257.0,VALID,1.572,
2017-05-15, 10:18:06,VALID,917.278,VALID,0.0,VALID,77.727,VALID,318.006,VALID,24.824,VALID,231.0,VALID,0.881,
2017-05-15, 10:19:06,VALID,917.274,VALID,0.0,VALID,78.723,VALID,576.484,VALID,24.804,VALID,262.0,VALID,0.844,
2017-05-15, 10:20:06,VALID,917.266,VALID,0.0,VALID,78.984,VALID,829.276,VALID,24.795,VALID,258.0,VALID,1.032,
2017-05-15, 10:21:06,VALID,917.252,VALID,0.0,VALID,77.593,VALID,866.471,VALID,24.793,VALID,254.0,VALID,1.173,
2017-05-15, 10:22:06,VALID,917.233,VALID,0.0,VALID,77.087,VALID,584.12,VALID,24.781,VALID,261.0,VALID,1.016,
2017-05-15, 10:23:06,VALID,917.201,VALID,0.0,VALID,77.16,VALID,266.092,VALID,24.745,VALID,229.0,VALID,0.932,
2017-05-15, 10:24:06,VALID,917.192,VALID,0.0,VALID,78.119,VALID,251.634,VALID,24.855,VALID,256.0,VALID,1.141,
2017-05-15, 10:25:06,VALID,917.18,VALID,0.0,VALID,79.365,VALID,253.236,VALID,24.79,VALID,265.0,VALID,0.979,
2017-05-15, 10:26:06,VALID,917.177,VALID,0.0,VALID,80.779,VALID,374.894,VALID,24.776,VALID,266.0,VALID,0.6,
2017-05-15, 10:27:06,VALID,917.165,VALID,0.0,VALID,79.825,VALID,638.382,VALID,24.757,VALID,256.0,VALID,0.626,
2017-05-15, 10:28:06,VALID,917.163,VALID,0.0,VALID,80.354,VALID,734.09,VALID,24.8,VALID,244.0,VALID,0.911,
2017-05-15, 10:29:06,VALID,917.159,VALID,0.0,VALID,80.712,VALID,931.393,VALID,24.977,VALID,232.0,VALID,0.912,
2017-05-15, 10:30:06,VALID,917.168,VALID,0.0,VALID,77.3,VALID,1009.766,VALID,25.192,VALID,256.0,VALID,1.35,
2017-05-15, 10:31:06,VALID,917.145,VALID,0.0,VALID,77.275,VALID,844.234,VALID,25.152,VALID,254.0,VALID,1.011,
2017-05-15, 10:32:06,VALID,917.137,VALID,0.0,VALID,76.827,VALID,795.113,VALID,25.237,VALID,247.0,VALID,1.304,
2017-05-15, 10:33:06,VALID,917.14,VALID,0.0,VALID,74.013,VALID,639.13,VALID,25.341,VALID,241.0,VALID,1.4,
2017-05-15, 10:34:06,VALID,917.127,VALID,0.0,VALID,73.358,VALID,589.804,VALID,25.261,VALID,247.0,VALID,0.779,
2017-05-15, 10:35:06,VALID,917.116,VALID,0.0,VALID,74.066,VALID,605.084,VALID,25.262,VALID,256.0,VALID,0.355,
2017-05-15, 10:36:06,VALID,917.109,VALID,0.0,VALID,74.752,VALID,430.975,VALID,25.341,VALID,272.0,VALID,0.802,